Voltar ao catálogo

STARLINK-5064

AtivoComunicaçõesVLEO
NORAD 55428·PAYLOAD·🇺🇸 United States

Lançado Jan 31, 2023 de Vandenberg Space Force Base

Loading…

Próximas Passagens (próximas 24 horas)

TLE

AtualizadoSource: CelesTrak SupGP

Época: Sep 15, 2026, 01:34 UTC

1 55428C 23014AP  26258.06576389  .00073816  00000+0  61865-2 0  2581
2 55428  70.0015 327.1591 0003721 264.7012 117.9109 14.98289273    14

Acompanhe STARLINK-5064 em tempo real com AllMySat

Download on the App Store